Location: State Line Observation Field
(36.5320°N, 77.5360°W)
Time: 10:46:32
(UTC-04:00)

Envisat - Pass Details

Date: 08 March 2021
Orbit: 764 x 766 km, 98.1° (Epoch: 13 April)

Event Time Altitude Azimuth Distance (km) Brightness Sun altitude
Rises 05:15:41 0° 20° (NNE) 3,237 6.6 -15.9°
Reaches altitude 10° 05:18:07 10° 28° (NNE) 2,306 5.9 -15.4°
Maximum altitude 05:22:55 42° 98° (E) 1,088 4.4 -14.4°
Drops below altitude 10° 05:27:41 10° 169° (S) 2,291 5.6 -13.5°
Sets 05:30:06 0° 176° (S) 3,212 6.2 -13.0°
